Volver al catálogo

SL-14 R/B

ActivoPO
NORAD 18313·ROCKET BODY·🇷🇺 Russia

Lanzado Aug 18, 1987 desde Plesetsk Cosmodrome

Loading…

Próximos Pases (próximas 24 horas)

TLE

ActualizadoSource: Space-Track

Época: Sep 14, 2026, 22:36 UTC

1 18313U 87068B   26257.94186038  .00000014  00000-0 -67841-6 0  9994
2 18313  82.5555 230.6926 0010045 173.6236 186.5054 13.84310360974192

Sigue SL-14 R/B en tiempo real con AllMySat

Download on the App Store